Weather History for KOWB - October, 2011

Change the Weather History Date:

Wednesday, October 5, 2011

  Actual Average Record
Temperature  
Mean Temperature 64 °F -  
Max Temperature 81 °F 76 °F 91 °F (1951)
Min Temperature 46 °F 48 °F 29 °F (1980)
Degree Days  
Heating Degree Days 2    
Growing Degree Days 14 (Base 50)    
Moisture  
Dew Point 50 °F    
Average Humidity 68    
Maximum Humidity 100    
Minimum Humidity 31    
Precipitation  
Precipitation 0.00 in - - ()
Sea Level Pressure  
Sea Level Pressure 30.24 in    
Wind  
Wind Speed 1 mph (ESE)    
Max Wind Speed 5 mph    
Max Gust Speed -    
Visibility 9 miles    
Events      
Averages and records for this station are not official NWS values.
T = Trace of Precipitation, MM = Missing Value Source: NWS Daily Summary

Daily Weather History Graph

Daily Weather History Graph

Search for Another Location

Airport or City:

Trip Planner

Search our weather history database for the weather conditions in past years. The results will help you decide how hot, cold, wet, or windy it might be!

Date:

Astronomy

Oct. 05, 2011 Rise Set
Actual Time 6:47 AM CDT 6:26 PM CDT
Civil Twilight 6:21 AM CDT 6:52 PM CDT
Nautical Twilight 5:50 AM CDT 7:22 PM CDT
Astronomical Twilight 5:20 AM CDT 7:53 PM CDT
Moon 3:00 PM CDT (10/5) 12:40 AM CDT (10/5)
Length of Visible Light 12h 30m
Length of Day
11h 38m
Waxing Gibbous, 66% of the Moon is Illuminated
Oct 5
Waxing Gibbous
Oct 11
Full
Oct 19
Last Quarter
Oct 26
New
Nov 2
First Quarter

Hourly Weather History & Observations

Time (CDT) Temp. Dew Point Humidity Pressure Visibility Wind Dir Wind Speed Gust Speed Precip Events Conditions
12:56 AM 52.9 °F 50.9 °F 93% 30.24 in 10.0 mi Calm Calm - N/A   Clear
1:56 AM 53.6 °F 51.8 °F 94% 30.25 in 4.0 mi Calm Calm - N/A   Clear
2:56 AM 52.0 °F 50.0 °F 93% 30.25 in 5.0 mi Calm Calm - N/A   Clear
3:56 AM 50.0 °F 50.0 °F 100% 30.25 in 10.0 mi Calm Calm - N/A   Clear
4:56 AM 50.0 °F 50.0 °F 100% 30.26 in 4.0 mi Calm Calm - N/A   Clear
5:56 AM 46.9 °F 46.9 °F 100% 30.27 in 10.0 mi Calm Calm - N/A   Clear
6:56 AM 46.9 °F 46.9 °F 100% 30.28 in 5.0 mi Calm Calm - N/A   Clear
7:56 AM 54.0 °F 52.0 °F 93% 30.29 in 7.0 mi Calm Calm - N/A   Clear
8:56 AM 59.9 °F 50.0 °F 70% 30.30 in 7.0 mi ESE 3.5 mph - N/A   Clear
9:56 AM 66.9 °F 50.9 °F 56% 30.30 in 10.0 mi Variable 3.5 mph - N/A   Clear
10:56 AM 73.4 °F 50.0 °F 44% 30.30 in 10.0 mi East 3.5 mph - N/A   Clear
11:56 AM 75.9 °F 50.0 °F 40% 30.28 in 10.0 mi Calm Calm - N/A   Clear
12:56 PM 79.9 °F 47.8 °F 32% 30.25 in 10.0 mi Calm Calm - N/A   Clear
1:56 PM 79.0 °F 48.9 °F 35% 30.22 in 10.0 mi Variable 4.6 mph - N/A   Clear
2:56 PM 81.0 °F 50.0 °F 34% 30.21 in 10.0 mi Variable 4.6 mph - N/A   Clear
3:56 PM 81.0 °F 47.8 °F 31% 30.19 in 10.0 mi Calm Calm - N/A   Clear
5:56 PM 77.0 °F 50.0 °F 39% 30.18 in 10.0 mi ESE 4.6 mph - N/A   Clear
6:56 PM 72.0 °F 50.9 °F 47% 30.19 in 10.0 mi ESE 3.5 mph - N/A   Clear
7:56 PM 69.8 °F 51.8 °F 53% 30.20 in 10.0 mi Calm Calm - N/A   Clear
8:56 PM 63.9 °F 52.9 °F 67% 30.21 in 10.0 mi Calm Calm - N/A   Clear
9:56 PM 61.9 °F 54.0 °F 75% 30.21 in 10.0 mi Calm Calm - N/A   Clear
10:56 PM 57.9 °F 52.0 °F 81% 30.21 in 10.0 mi Calm Calm - N/A   Clear
11:56 PM 57.9 °F 52.9 °F 83% 30.21 in 10.0 mi Calm Calm - N/A   Clear